Tracking 29059 objects as of 18-Jun-2024
HD Live streaming from Space Station
objects crossing your sky now

STARLINK-6216

Track STARLINK-6216 now!
10-day predictions
STARLINK-6216 is classified as:


NORAD ID: 56893
Int'l Code: 2023-083T
Perigee: 565.2 km
Apogee: 567.2 km
Inclination: 43.0 °
Period: 95.8 minutes
Semi major axis: 6937 km
RCS: Unknown
Launch date: June 12, 2023
Source: United States (US)
Launch site: AIR FORCE EASTERN TEST RANGE (AFETR)
Your satellite tracking list
Your tracking list is empty




NASA's NSSDC Master Catalog

Two Line Element Set (TLE):
1 56893U 23083T   24169.95928700  .00000055  00000-0  19165-4 0  9995
2 56893  43.0037 263.4701 0001429 268.1163  91.9516 15.02536022 56149
Source of the keplerian elements: AFSPC